Location: Newark
(40.5981°N, 124.1572°W)
Time: 09:36:06
(UTC+00:00)

Envisat - Visible Passes

Search period start: 24 August 2019 00:00
Search period end: 03 September 2019 00:00
Orbit: 764 x 766 km, 98.1° (Epoch: 24 August)

Date Brightness Start Highest point End Pass type
(mag) Time Alt. Az. Time Alt. Az. Time Alt. Az.
25 Aug 5.8 03:48:16 10° SW 03:51:30 17° W 03:54:45 10° NW visible
28 Aug 5.7 03:36:19 10° SW 03:40:09 21° W 03:44:00 10° NW visible
30 Aug 6.1 04:04:08 10° WSW 04:05:56 12° W 04:07:45 10° WNW visible
31 Aug 5.3 03:24:33 10° SSW 03:28:48 27° W 03:33:07 10° NW visible
02 Sep 5.9 03:51:38 10° SW 03:54:33 15° W 03:57:30 10° NW visible
